Lorain / Elyria, OH

8:48 PM EDT on September 19, 2017 (GMT -0400)
Lorain County Regional

Weather History for KLPR - February, 2013

Change the Weather History Date:

Saturday, February 23, 2013

  Actual Average (KCLE) Record (KCLE)
Temperature  
Mean Temperature 32 °F -  
Max Temperature 35 °F 40 °F 68 °F (2017)
Min Temperature 30 °F 27 °F -5 °F (2015)
Degree Days  
Heating Degree Days 32    
Moisture  
Dew Point 25 °F    
Average Humidity 74    
Maximum Humidity 82    
Minimum Humidity 66    
Precipitation  
Precipitation 0.00 in - - ()
Sea Level Pressure  
Sea Level Pressure 29.94 in    
Wind  
Wind Speed 9 mph (West)    
Max Wind Speed 14 mph    
Max Gust Speed 18 mph    
Visibility 10 miles    
Events      
Averages and records for this station are not official NWS values.
T = Trace of Precipitation, MM = Missing Value Source: NWS Daily Summary

Daily Weather History Graph

Daily Weather History Graph

Search for Another Location

Airport or City:

Trip Planner

Search our weather history database for the weather conditions in past years. The results will help you decide how hot, cold, wet, or windy it might be!

Date:

Astronomy

Feb. 23, 2013 Rise Set
Actual Time 7:11 AM EST 6:12 PM EST
Civil Twilight 6:44 AM EST 6:40 PM EST
Nautical Twilight 6:11 AM EST 7:12 PM EST
Astronomical Twilight 5:40 AM EST 7:44 PM EST
Moon 4:21 PM EST (2/23) 5:34 AM EST (2/23)
Length of Visible Light 11h 56m
Length of Day
11h 00m
Waxing Gibbous, 95% of the Moon is Illuminated
Feb 23
Waxing Gibbous
Feb 25
Full
Mar 4
Last Quarter
Mar 11
New
Mar 19
First Quarter

Hourly Weather History & Observations

Time (EST) Temp. Windchill Dew Point Humidity Pressure Visibility Wind Dir Wind Speed Gust Speed Precip Events Conditions
12:53 AM 33.1 °F 26.9 °F 28.0 °F 82% 29.97 in 10.0 mi SSW 6.9 mph - N/A   Partly Cloudy
1:53 AM 34.0 °F 27.2 °F 28.0 °F 79% 29.96 in 10.0 mi South 8.1 mph - N/A   Mostly Cloudy
2:53 AM 35.1 °F 28.6 °F 28.9 °F 78% 29.95 in 10.0 mi South 8.1 mph - N/A   Overcast
3:53 AM 35.1 °F 28.6 °F 28.9 °F 78% 29.93 in 10.0 mi South 8.1 mph - N/A   Overcast
4:53 AM 35.1 °F 27.4 °F 28.9 °F 78% 29.93 in 10.0 mi SW 10.4 mph - N/A   Overcast
5:44 AM 35.6 °F 28.0 °F 28.4 °F 75% 29.92 in 10.0 mi WSW 10.4 mph - N/A   Overcast
5:53 AM 35.1 °F 27.4 °F 28.9 °F 78% 29.94 in 10.0 mi SW 10.4 mph - N/A   Overcast
6:32 AM 35.6 °F 27.1 °F 28.4 °F 75% 29.92 in 10.0 mi WSW 12.7 mph - N/A   Overcast
6:40 AM 35.6 °F 29.2 °F 28.4 °F 75% 29.92 in 10.0 mi WSW 8.1 mph - N/A   Overcast
6:53 AM 35.1 °F 28.6 °F 28.9 °F 78% 29.94 in 10.0 mi West 8.1 mph - N/A   Overcast
7:53 AM 33.1 °F 26.1 °F 28.0 °F 82% 29.96 in 9.0 mi West 8.1 mph - N/A   Overcast
8:53 AM 32.0 °F 22.5 °F 27.0 °F 82% 29.97 in 7.0 mi WNW 12.7 mph - N/A   Overcast
9:53 AM 30.9 °F 20.7 °F 24.1 °F 76% 29.97 in 10.0 mi WNW 13.8 mph - N/A   Overcast
10:53 AM 30.9 °F 22.8 °F 21.9 °F 69% 29.97 in 10.0 mi WNW 9.2 mph - N/A   Overcast
11:53 AM 32.0 °F 24.8 °F 21.9 °F 66% 29.96 in 10.0 mi West 8.1 mph 18.4 mph N/A   Overcast
12:53 PM 33.1 °F 23.4 °F 23.0 °F 66% 29.95 in 10.0 mi West 13.8 mph - N/A   Overcast
1:53 PM 33.1 °F 27.7 °F 24.1 °F 70% 29.93 in 10.0 mi West 5.8 mph - N/A   Overcast
2:53 PM 33.1 °F 25.5 °F 24.1 °F 70% 29.94 in 10.0 mi West 9.2 mph - N/A   Overcast
3:53 PM 33.1 °F 26.1 °F 23.0 °F 66% 29.92 in 10.0 mi West 8.1 mph - N/A   Overcast
4:53 PM 33.1 °F 26.1 °F 23.0 °F 66% 29.93 in 10.0 mi West 8.1 mph - N/A   Overcast
5:53 PM 32.0 °F 24.8 °F 23.0 °F 69% 29.94 in 10.0 mi West 8.1 mph - N/A   Overcast
6:53 PM 32.0 °F 27.5 °F 23.0 °F 69% 29.94 in 10.0 mi WNW 4.6 mph - N/A   Overcast
7:53 PM 32.0 °F 26.4 °F 24.1 °F 73% 29.94 in 10.0 mi WNW 5.8 mph - N/A   Overcast
8:53 PM 30.9 °F 24.3 °F 23.0 °F 72% 29.94 in 10.0 mi WNW 6.9 mph - N/A   Overcast
9:03 PM 30.2 °F 25.4 °F 23.0 °F 75% 29.92 in 10.0 mi NW 4.6 mph - N/A   Overcast
9:53 PM 30.9 °F 23.5 °F 23.0 °F 72% 29.96 in 10.0 mi NW 8.1 mph - N/A   Overcast
11:23 PM 30.2 °F 23.4 °F 23.0 °F 75% 29.90 in 10.0 mi NW 6.9 mph - N/A   Overcast
11:53 PM 30.0 °F 22.4 °F 21.9 °F 72% 29.92 in 10.0 mi NW 8.1 mph - N/A   Overcast